TimeEST,TemperatureF,Dew PointF,Humidity,Sea Level PressureIn,VisibilityMPH,Wind Direction,Wind SpeedMPH,Gust SpeedMPH,PrecipitationIn,Events,Conditions,WindDirDegrees,DateUTC
12:53 AM,18.0,6.1,60,30.38,10.0,WNW,3.5,-,N/A,,Clear,300,2013-01-27 05:53:00
1:53 AM,17.1,6.1,62,30.40,10.0,WNW,3.5,-,N/A,,Clear,290,2013-01-27 06:53:00
2:53 AM,16.0,6.1,65,30.41,10.0,West,5.8,-,N/A,,Clear,280,2013-01-27 07:53:00
3:53 AM,16.0,6.1,65,30.41,10.0,West,4.6,-,N/A,,Clear,280,2013-01-27 08:53:00
4:53 AM,16.0,7.0,68,30.41,10.0,West,6.9,-,N/A,,Clear,270,2013-01-27 09:53:00
5:53 AM,18.0,9.0,68,30.43,10.0,WNW,5.8,-,N/A,,Clear,300,2013-01-27 10:53:00
6:53 AM,18.0,10.0,71,30.44,10.0,WNW,6.9,-,N/A,,Clear,290,2013-01-27 11:53:00
7:53 AM,19.9,10.9,68,30.47,10.0,WNW,4.6,-,N/A,,Clear,300,2013-01-27 12:53:00
8:53 AM,23.0,10.9,60,30.48,10.0,NNW,9.2,-,N/A,,Clear,330,2013-01-27 13:53:00
9:53 AM,26.1,10.9,53,30.50,10.0,NW,5.8,-,N/A,,Clear,310,2013-01-27 14:53:00
10:53 AM,27.0,10.9,51,30.51,10.0,WNW,10.4,-,N/A,,Clear,300,2013-01-27 15:53:00
11:53 AM,28.0,10.0,47,30.50,10.0,WNW,9.2,-,N/A,,Clear,290,2013-01-27 16:53:00
12:53 PM,30.9,7.0,37,30.47,10.0,North,8.1,18.4,N/A,,Clear,350,2013-01-27 17:53:00
1:53 PM,32.0,7.0,35,30.46,10.0,NNW,8.1,-,N/A,,Clear,330,2013-01-27 18:53:00
2:53 PM,33.1,6.1,32,30.46,10.0,NW,9.2,-,N/A,,Clear,310,2013-01-27 19:53:00
3:53 PM,33.1,5.0,31,30.46,10.0,NNW,8.1,-,N/A,,Clear,330,2013-01-27 20:53:00
4:53 PM,30.9,8.1,38,30.48,10.0,WNW,4.6,-,N/A,,Clear,300,2013-01-27 21:53:00
5:53 PM,30.0,9.0,41,30.49,10.0,Calm,Calm,-,N/A,,Clear,0,2013-01-27 22:53:00
6:53 PM,30.0,9.0,41,30.50,10.0,WNW,3.5,-,N/A,,Clear,290,2013-01-27 23:53:00
7:53 PM,30.0,10.0,43,30.50,10.0,WNW,4.6,-,N/A,,Clear,300,2013-01-28 00:53:00
8:53 PM,30.0,8.1,40,30.50,10.0,NNW,3.5,-,N/A,,Clear,340,2013-01-28 01:53:00
9:53 PM,27.0,10.0,49,30.51,10.0,Calm,Calm,-,N/A,,Clear,0,2013-01-28 02:53:00
10:53 PM,23.0,10.9,60,30.50,10.0,Calm,Calm,-,N/A,,Clear,0,2013-01-28 03:53:00
11:53 PM,23.0,10.9,60,30.49,10.0,Calm,Calm,-,N/A,,Clear,0,2013-01-28 04:53:00